Location: Long Geng
(2.6167°N, 114.1333°E)
Time: 00:28:25
(UTC+00:00)

BLOCK DM-SL R/B - Pass Details

Date: 23 September 2021
Orbit: 644 x 35622 km, 0.3° (Epoch: 24 October)

Event Time Altitude Azimuth Distance (km) Brightness Sun altitude
Rises 05:43:14 0° 269° (W) 14,759 10.3 68.0°
Reaches altitude 10° 05:54:57 10° 269° (W) 16,480 10.8 65.1°
Maximum altitude 07:26:10 30° 268° (W) 29,371 13.7 42.4°
Drops below altitude 10° 11:03:59 10° 269° (W) 39,758 13.7 -12.0°
Sets 12:34:47 0° 270° (W) 35,691 13.0 -34.7°
